Location: Waco, TX
(31.5480°N, 97.1670°W)
Time: 03:59:55
(UTC-06:00)

ISS - Pass Details

Date: 15 November 2017
Orbit: 401 x 407 km, 51.6° (Epoch: 18 November)

Event Time Altitude Azimuth Distance (km) Brightness Sun altitude
Rises 07:12:28 0° 312° (NW) 2,311 -0.6 2.2°
Reaches altitude 10° 07:14:34 10° 310° (NW) 1,449 -1.6 2.6°
Maximum altitude 07:17:47 69° 228° (SW) 432 -3.7 3.3°
Drops below altitude 10° 07:21:00 10° 143° (SE) 1,443 0.2 3.9°
Sets 07:23:04 0° 141° (SE) 2,298 1.3 4.3°
